Change the Weather History Date:

Thursday, March 27, 2014

  Actual Average (K3TH) Record (K3TH)
Temperature  
Mean Temperature 28 °F -  
Max Temperature 30 °F 48 °F 50 °F (2001)
Min Temperature 25 °F 32 °F 32 °F (2001)
Degree Days  
Heating Degree Days 38    
Moisture  
Dew Point 27 °F    
Average Humidity 97    
Maximum Humidity 100    
Minimum Humidity 92    
Precipitation  
Precipitation 0.33 in - - ()
Sea Level Pressure  
Sea Level Pressure 29.62 in    
Wind  
Wind Speed 5 mph (WSW)    
Max Wind Speed 12 mph    
Max Gust Speed 24 mph    
Visibility 3 miles    
Events Fog , Snow    
Averages and records for this station are not official NWS values.
T = Trace of Precipitation, MM = Missing Value Source: NWS Daily Summary

Daily Weather History Graph

Daily Weather History Graph

Search for Another Location

Airport or City:

Trip Planner

Search our weather history database for the weather conditions in past years. The results will help you decide how hot, cold, wet, or windy it might be!

Date:

Astronomy

Mar. 27, 2014 Rise Set
Actual Time 6:31 AM PDT 7:05 PM PDT
Civil Twilight 6:00 AM PDT 7:36 PM PDT
Nautical Twilight 5:23 AM PDT 8:13 PM PDT
Astronomical Twilight 4:45 AM PDT 8:51 PM PDT
Moon 4:38 AM PDT (3/27) 3:46 PM PDT (3/27)
Length of Visible Light 13h 35m
Length of Day
12h 34m
Waning Crescent, 12% of the Moon is Illuminated
Mar 27
Waning Crescent
Mar 30
New
Apr 7
First Quarter
Apr 15
Full
Apr 22
Last Quarter

Hourly Weather History & Observations

Time (PDT) Temp. Windchill Dew Point Humidity Pressure Visibility Wind Dir Wind Speed Gust Speed Precip Events Conditions
12:29 AM 26.6 °F 19.1 °F 26.6 °F 100% 29.49 in 10.0 mi South 6.9 mph - N/A   Overcast
12:53 AM 27.0 °F 21.6 °F 26.1 °F 96% 29.40 in 10.0 mi Variable 4.6 mph - N/A   Overcast
1:10 AM 26.6 °F 21.2 °F 26.6 °F 100% 29.48 in 10.0 mi South 4.6 mph - N/A   Overcast
1:34 AM 26.6 °F 21.2 °F 26.6 °F 100% 29.48 in 10.0 mi Variable 4.6 mph - N/A   Overcast
1:45 AM 26.6 °F 20.0 °F 26.6 °F 100% 29.48 in 10.0 mi South 5.8 mph - N/A   Overcast
1:53 AM 26.1 °F 18.4 °F 25.0 °F 96% 29.54 in 10.0 mi South 6.9 mph - N/A   Mostly Cloudy
2:10 AM 26.6 °F 20.0 °F 24.8 °F 93% 29.48 in 10.0 mi SSE 5.8 mph - N/A   Mostly Cloudy
2:50 AM 26.6 °F 21.2 °F 26.6 °F 100% 29.48 in 10.0 mi South 4.6 mph - N/A   Overcast
2:53 AM 27.0 °F 21.6 °F 26.1 °F 96% 29.39 in 10.0 mi South 4.6 mph - N/A   Overcast
3:10 AM 26.6 °F 21.2 °F 26.6 °F 100% 29.48 in 10.0 mi South 4.6 mph - N/A   Overcast
3:38 AM 26.6 °F 21.2 °F 26.6 °F 100% 29.48 in 1.8 mi South 4.6 mph - N/A   Overcast
3:53 AM 27.0 °F 23.0 °F 26.1 °F 96% 29.40 in 1.8 mi Variable 3.5 mph - N/A   Overcast
4:02 AM 26.6 °F 22.6 °F 26.6 °F 100% 29.48 in 2.0 mi Variable 3.5 mph - 0.00 in Snow Light Snow
4:21 AM 26.6 °F - 26.6 °F 100% 29.48 in 1.2 mi Calm Calm - 0.00 in Snow Light Snow
4:30 AM 26.6 °F - 26.6 °F 100% 29.48 in 0.5 mi Calm Calm - 0.01 in Fog , Snow Light Snow
4:42 AM 26.6 °F - 26.6 °F 100% 29.49 in 1.0 mi Calm Calm - 0.01 in Snow Light Snow
4:53 AM 27.0 °F 23.0 °F 26.1 °F 96% 29.55 in 0.5 mi Variable 3.5 mph - 0.02 in Fog , Snow Snow
5:53 AM 26.1 °F 20.5 °F 26.1 °F 100% 29.56 in 0.8 mi Variable 4.6 mph - 0.04 in Snow Light Snow
6:05 AM 26.6 °F 20.0 °F 24.8 °F 93% 29.50 in 1.2 mi Variable 5.8 mph - 0.00 in Snow Light Snow
6:35 AM 26.6 °F 22.6 °F 24.8 °F 93% 29.50 in 0.8 mi Variable 3.5 mph - 0.01 in Snow Light Snow
6:53 AM 26.1 °F 21.9 °F 25.0 °F 96% 29.59 in 0.5 mi Variable 3.5 mph - 0.02 in Fog , Snow Snow
7:04 AM 26.6 °F - 24.8 °F 93% 29.51 in 0.2 mi Calm Calm - 0.00 in Fog , Snow Snow
7:53 AM 25.0 °F 18.1 °F 25.0 °F 100% 29.61 in 0.5 mi SW 5.8 mph - 0.02 in Fog , Snow Light Snow
8:53 AM 26.1 °F 20.5 °F 25.0 °F 96% 29.62 in 0.8 mi Variable 4.6 mph - 0.01 in Snow Light Snow
9:11 AM 26.6 °F 22.6 °F 26.6 °F 100% 29.54 in 0.2 mi Variable 3.5 mph - 0.00 in Fog , Snow Light Snow
9:22 AM 26.6 °F 21.2 °F 24.8 °F 93% 29.54 in 0.5 mi Variable 4.6 mph - 0.00 in Fog , Snow Light Snow
9:53 AM 26.1 °F 21.9 °F 26.1 °F 100% 29.64 in 0.2 mi Variable 3.5 mph - 0.00 in Fog , Snow Light Snow
10:00 AM 26.6 °F - 26.6 °F 100% 29.55 in 0.5 mi Calm Calm - 0.00 in Fog , Snow Light Snow
10:10 AM 26.6 °F - 26.6 °F 100% 29.56 in 0.2 mi Calm Calm - 0.01 in Fog , Snow Light Snow
10:28 AM 26.6 °F 20.0 °F 26.6 °F 100% 29.56 in 1.0 mi Variable 5.8 mph - 0.01 in Snow Light Snow
10:44 AM 26.6 °F 21.2 °F 26.6 °F 100% 29.56 in 0.8 mi Variable 4.6 mph - 0.01 in Snow Light Snow
10:51 AM 26.6 °F 20.0 °F 26.6 °F 100% 29.57 in 1.0 mi Variable 5.8 mph - 0.01 in Snow Light Snow
10:53 AM 27.0 °F 20.5 °F 27.0 °F 100% 29.65 in 1.2 mi Variable 5.8 mph - 0.01 in Snow Light Snow
11:02 AM 26.6 °F 20.0 °F 26.6 °F 100% 29.57 in 1.5 mi Variable 5.8 mph - 0.00 in Snow Light Snow
11:09 AM 28.4 °F 22.2 °F 28.4 °F 100% 29.57 in 1.0 mi Variable 5.8 mph - 0.00 in Snow Light Snow
11:19 AM 26.6 °F 17.5 °F 26.6 °F 100% 29.57 in 0.8 mi SW 9.2 mph - 0.00 in Snow Light Snow
11:30 AM 28.4 °F 21.2 °F 26.6 °F 93% 29.58 in 1.5 mi Variable 6.9 mph - 0.00 in Snow Light Snow
11:34 AM 28.4 °F 19.1 °F 26.6 °F 93% 29.58 in 2.5 mi WSW 10.4 mph 18.4 mph 0.00 in Snow Light Snow
11:36 AM 28.4 °F 21.2 °F 26.6 °F 93% 29.58 in 3.0 mi WSW 6.9 mph 18.4 mph 0.00 in Snow Light Snow
11:46 AM 28.4 °F 19.1 °F 26.6 °F 93% 29.58 in 4.0 mi SW 10.4 mph 19.6 mph 0.00 in Snow Light Snow
11:53 AM 28.0 °F 20.8 °F 26.1 °F 92% 29.66 in 7.0 mi Variable 6.9 mph 19.6 mph 0.00 in   Overcast
12:46 PM 30.2 °F 25.4 °F 28.4 °F 93% 29.59 in 7.0 mi Variable 4.6 mph - 0.00 in   Overcast
12:49 PM 30.2 °F 25.4 °F 28.4 °F 93% 29.59 in 1.0 mi Variable 4.6 mph - 0.00 in Snow Light Snow
12:53 PM 30.0 °F 26.5 °F 28.9 °F 96% 29.67 in 0.2 mi Variable 3.5 mph - 0.00 in Fog , Snow Light Snow
1:01 PM 28.4 °F 24.6 °F 28.4 °F 100% 29.60 in 0.2 mi Variable 3.5 mph - 0.00 in Fog , Snow Light Snow
1:25 PM 30.2 °F 25.4 °F 28.4 °F 93% 29.59 in 1.0 mi Variable 4.6 mph - 0.01 in Snow Light Snow
1:32 PM 30.2 °F 23.4 °F 28.4 °F 93% 29.60 in 4.0 mi Variable 6.9 mph - 0.01 in   Overcast
1:41 PM 30.2 °F 25.4 °F 28.4 °F 93% 29.60 in 1.8 mi Variable 4.6 mph - 0.01 in Snow Light Snow
1:43 PM 30.2 °F 26.7 °F 28.4 °F 93% 29.60 in 0.8 mi Variable 3.5 mph - 0.01 in Snow Light Snow
1:53 PM 30.0 °F 26.5 °F 28.9 °F 96% 29.67 in 0.2 mi Variable 3.5 mph - 0.02 in Fog , Snow Light Snow
2:10 PM 28.4 °F 24.6 °F 28.4 °F 100% 29.60 in 0.5 mi Variable 3.5 mph - 0.00 in Fog , Snow Light Snow
2:28 PM 28.4 °F 22.2 °F 28.4 °F 100% 29.61 in 0.2 mi Variable 5.8 mph - 0.01 in Fog , Snow Light Snow
2:43 PM 28.4 °F 22.2 °F 26.6 °F 93% 29.61 in 1.0 mi Variable 5.8 mph - 0.02 in Snow Light Snow
2:45 PM 28.4 °F 22.2 °F 26.6 °F 93% 29.61 in 2.0 mi Variable 5.8 mph - 0.02 in Snow Light Snow
2:53 PM 28.0 °F 24.2 °F 26.1 °F 92% 29.68 in 1.0 mi Variable 3.5 mph - 0.02 in Snow Light Snow
3:00 PM 28.4 °F 23.3 °F 26.6 °F 93% 29.61 in 0.2 mi Variable 4.6 mph - 0.01 in Fog , Snow Snow
3:14 PM 30.2 °F 22.6 °F 28.4 °F 93% 29.61 in 1.0 mi SW 8.1 mph - 0.02 in Snow Light Snow
3:17 PM 28.4 °F 23.3 °F 26.6 °F 93% 29.61 in 3.0 mi Variable 4.6 mph - 0.02 in Snow Light Snow
3:31 PM 28.4 °F 23.3 °F 26.6 °F 93% 29.62 in 1.5 mi Variable 4.6 mph - 0.02 in Snow Light Snow
3:33 PM 28.4 °F 22.2 °F 26.6 °F 93% 29.62 in 0.8 mi Variable 5.8 mph - 0.02 in Snow Light Snow
3:43 PM 28.4 °F 24.6 °F 26.6 °F 93% 29.62 in 0.2 mi Variable 3.5 mph - 0.03 in Fog , Snow Snow
3:53 PM 28.0 °F 22.8 °F 27.0 °F 96% 29.70 in 0.2 mi Variable 4.6 mph - 0.05 in Fog , Snow Heavy Snow
4:10 PM 28.4 °F 24.6 °F 26.6 °F 93% 29.63 in 0.5 mi Variable 3.5 mph - 0.01 in Fog , Snow Snow
4:27 PM 26.6 °F 20.0 °F 26.6 °F 100% 29.63 in 1.8 mi Variable 5.8 mph - 0.01 in Snow Light Snow
4:34 PM 28.4 °F - 26.6 °F 93% 29.63 in 6.0 mi Calm Calm - 0.01 in   Overcast
4:51 PM 28.4 °F 23.3 °F 26.6 °F 93% 29.64 in 10.0 mi Variable 4.6 mph - 0.01 in   Overcast
4:53 PM 28.0 °F - 26.1 °F 92% 29.72 in 10.0 mi Calm Calm - 0.01 in   Overcast
5:01 PM 26.6 °F - 26.6 °F 100% 29.64 in 10.0 mi Calm Calm - N/A   Overcast
5:05 PM 26.6 °F 21.2 °F 26.6 °F 100% 29.64 in 1.2 mi WSW 4.6 mph - 0.00 in Snow Light Snow
5:07 PM 26.6 °F 21.2 °F 26.6 °F 100% 29.64 in 0.8 mi Variable 4.6 mph - 0.01 in Snow Light Snow
5:33 PM 26.6 °F 21.2 °F 26.6 °F 100% 29.65 in 1.8 mi Variable 4.6 mph - 0.01 in   Overcast
5:35 PM 26.6 °F 21.2 °F 26.6 °F 100% 29.65 in 3.0 mi Variable 4.6 mph - 0.01 in   Overcast
5:48 PM 26.6 °F 20.0 °F 26.6 °F 100% 29.65 in 1.8 mi Variable 5.8 mph - 0.01 in Snow Light Snow
5:51 PM 26.6 °F 21.2 °F 26.6 °F 100% 29.65 in 0.8 mi Variable 4.6 mph - 0.01 in Snow Light Snow
5:53 PM 27.0 °F 23.0 °F 26.1 °F 96% 29.74 in 0.5 mi Variable 3.5 mph - 0.01 in Fog , Snow Light Snow
6:11 PM 26.6 °F 20.0 °F 26.6 °F 100% 29.66 in 1.5 mi Variable 5.8 mph - 0.00 in Snow Light Snow
6:15 PM 26.6 °F 21.2 °F 26.6 °F 100% 29.66 in 0.8 mi Variable 4.6 mph - 0.00 in Snow Light Snow
6:25 PM 26.6 °F 22.6 °F 26.6 °F 100% 29.66 in 0.2 mi Variable 3.5 mph - 0.01 in Fog , Snow Heavy Snow
6:42 PM 26.6 °F 21.2 °F 26.6 °F 100% 29.67 in 0.8 mi Variable 4.6 mph - 0.02 in Snow Light Snow
6:53 PM 27.0 °F 16.7 °F 26.1 °F 96% 29.76 in 0.2 mi WNW 11.5 mph 20.7 mph 0.06 in Fog , Snow Heavy Snow
7:15 PM 26.6 °F 20.0 °F 26.6 °F 100% 29.68 in 0.5 mi Variable 5.8 mph 21.9 mph 0.04 in Fog , Snow Snow
7:27 PM 26.6 °F 18.2 °F 26.6 °F 100% 29.68 in 1.8 mi NW 8.1 mph - 0.04 in Snow Light Snow
7:29 PM 26.6 °F 19.1 °F 26.6 °F 100% 29.68 in 4.0 mi Variable 6.9 mph - 0.04 in   Overcast
7:41 PM 26.6 °F 17.5 °F 26.6 °F 100% 29.69 in 8.0 mi NW 9.2 mph - 0.04 in   Overcast
7:53 PM 26.1 °F 17.6 °F 26.1 °F 100% 29.79 in 9.0 mi WNW 8.1 mph - 0.04 in   Overcast
8:40 PM 26.6 °F 21.2 °F 26.6 °F 100% 29.71 in 1.8 mi Variable 4.6 mph - 0.00 in Snow Light Snow
8:48 PM 26.6 °F 20.0 °F 24.8 °F 93% 29.72 in 1.0 mi Variable 5.8 mph - 0.00 in Snow Light Snow
8:49 PM 27.0 °F 19.5 °F 25.0 °F 92% 29.81 in 1.0 mi Variable 6.9 mph - 0.00 in Snow Light Snow
8:59 PM 26.6 °F 17.5 °F 26.6 °F 100% 29.72 in 2.5 mi NW 9.2 mph 24.2 mph 0.00 in   Overcast
9:01 PM 26.6 °F 19.1 °F 26.6 °F 100% 29.72 in 4.0 mi Variable 6.9 mph 24.2 mph 0.00 in   Overcast
9:05 PM 26.6 °F 19.1 °F 26.6 °F 100% 29.72 in 1.8 mi Variable 6.9 mph - 0.00 in   Overcast
9:13 PM 26.6 °F 17.5 °F 26.6 °F 100% 29.72 in 1.2 mi NW 9.2 mph 19.6 mph 0.00 in   Overcast
9:22 PM 26.6 °F 19.1 °F 26.6 °F 100% 29.73 in 1.8 mi Variable 6.9 mph 18.4 mph 0.00 in   Overcast
9:35 PM 26.6 °F 17.5 °F 26.6 °F 100% 29.73 in 0.8 mi NW 9.2 mph 19.6 mph 0.00 in   Mist
9:53 PM 27.0 °F 18.7 °F 26.1 °F 96% 29.83 in 1.2 mi NW 8.1 mph 18.4 mph 0.00 in Snow Light Snow
10:00 PM 26.6 °F 17.5 °F 26.6 °F 100% 29.74 in 2.0 mi NW 9.2 mph - 0.00 in Snow Light Snow
10:16 PM 26.6 °F 18.2 °F 26.6 °F 100% 29.74 in 1.2 mi WNW 8.1 mph - 0.00 in Snow Light Snow
10:23 PM 26.6 °F 18.2 °F 26.6 °F 100% 29.75 in 2.0 mi NW 8.1 mph - 0.00 in   Overcast
10:31 PM 26.6 °F 18.2 °F 26.6 °F 100% 29.75 in 10.0 mi WNW 8.1 mph - 0.00 in   Overcast
10:53 PM 27.0 °F 21.6 °F 26.1 °F 96% 29.85 in 8.0 mi Variable 4.6 mph - 0.00 in   Overcast
11:29 PM 26.6 °F 21.2 °F 24.8 °F 93% 29.76 in 10.0 mi Variable 4.6 mph - N/A   Overcast
11:53 PM 26.1 °F 21.9 °F 25.0 °F 96% 29.86 in 10.0 mi SW 3.5 mph - N/A   Overcast